When you browse on this site, cookies collect data to enhance your experience and personalize the content and advertising you see.
Visit our Privacy Policy to learn more. By continuing to use the site, you agree to this use of cookies and data.

Hourly Weather Malaya Brazhenka

Today, 9 July, Thursday

Time Temperature Precipitation Wind Pressure Humidity
00:00 +14°C° 1 mm 6 mps 742 mmHg 96%
01:00 +14°C° 1 mm 5 mps 742 mmHg 95%
02:00 +13°C° 0 mm 4 mps 743 mmHg 94%
03:00 +13°C° 0.3 mm 4 mps 743 mmHg 94%
04:00 +13°C° 0.3 mm 5 mps 743 mmHg 94%
05:00 +12°C° 0.3 mm 5 mps 744 mmHg 94%
06:00 +14°C° 0 mm 5 mps 744 mmHg 90%
07:00 +15°C° 0 mm 5 mps 744 mmHg 87%
08:00 +16°C° 0 mm 5 mps 745 mmHg 83%
09:00 +18°C° 0 mm 4 mps 745 mmHg 79%
10:00 +19°C° 0 mm 4 mps 746 mmHg 74%
11:00 +20°C° 0 mm 4 mps 746 mmHg 70%
12:00 +21°C° 0 mm 4 mps 746 mmHg 68%
13:00 +21°C° 0 mm 3 mps 746 mmHg 65%
14:00 +22°C° 0 mm 3 mps 746 mmHg 63%
15:00 +21°C° 0.3 mm 3 mps 746 mmHg 68%
16:00 +20°C° 0.3 mm 4 mps 747 mmHg 72%
17:00 +19°C° 0.3 mm 4 mps 747 mmHg 77%
18:00 +18°C° 0 mm 3 mps 747 mmHg 81%
19:00 +17°C° 0 mm 3 mps 747 mmHg 85%
20:00 +16°C° 0 mm 2 mps 747 mmHg 89%
21:00 +15°C° 0 mm 2 mps 748 mmHg 90%
22:00 +13°C° 0 mm 3 mps 748 mmHg 92%
23:00 +13°C° 0 mm 3 mps 749 mmHg 93%

Tomorrow, 10 July, Friday

Time Temperature Precipitation Wind Pressure Humidity
00:00 +12°C° 0 mm 3 mps 749 mmHg 93%
01:00 +12°C° 0 mm 3 mps 749 mmHg 93%
02:00 +12°C° 0 mm 2 mps 749 mmHg 93%
03:00 +12°C° 0 mm 2 mps 750 mmHg 92%
04:00 +13°C° 0 mm 2 mps 750 mmHg 91%
05:00 +13°C° 0 mm 2 mps 750 mmHg 89%
06:00 +14°C° 0 mm 2 mps 751 mmHg 84%
07:00 +16°C° 0 mm 2 mps 751 mmHg 78%
08:00 +18°C° 0 mm 2 mps 751 mmHg 72%
09:00 +19°C° 0 mm 3 mps 751 mmHg 69%
10:00 +19°C° 0 mm 3 mps 751 mmHg 65%
11:00 +20°C° 0 mm 3 mps 751 mmHg 62%
12:00 +21°C° 0 mm 3 mps 751 mmHg 61%
13:00 +21°C° 0 mm 3 mps 751 mmHg 60%
14:00 +22°C° 0 mm 3 mps 751 mmHg 60%
15:00 +22°C° 0 mm 3 mps 751 mmHg 63%
16:00 +22°C° 0 mm 3 mps 751 mmHg 67%
17:00 +21°C° 0 mm 3 mps 751 mmHg 70%
18:00 +20°C° 0 mm 3 mps 751 mmHg 74%
19:00 +19°C° 0 mm 3 mps 751 mmHg 78%
20:00 +17°C° 0 mm 3 mps 751 mmHg 81%
21:00 +17°C° 0 mm 3 mps 752 mmHg 83%
22:00 +16°C° 0 mm 3 mps 752 mmHg 84%
23:00 +14°C° 0 mm 3 mps 752 mmHg 85%

Day after tomorrow, 11 July, Saturday

Time Temperature Precipitation Wind Pressure Humidity
00:00 +14°C° 0 mm 3 mps 752 mmHg 86%
01:00 +14°C° 0 mm 3 mps 752 mmHg 87%
02:00 +13°C° 0 mm 3 mps 752 mmHg 88%
03:00 +14°C° 0 mm 3 mps 752 mmHg 87%
04:00 +14°C° 0 mm 3 mps 752 mmHg 86%
05:00 +16°C° 0 mm 3 mps 752 mmHg 85%
06:00 +17°C° 0 mm 4 mps 752 mmHg 82%
07:00 +19°C° 0 mm 4 mps 752 mmHg 79%
08:00 +21°C° 0 mm 5 mps 752 mmHg 76%
09:00 +22°C° 0 mm 5 mps 752 mmHg 74%
10:00 +23°C° 0 mm 5 mps 752 mmHg 72%
11:00 +25°C° 0 mm 5 mps 752 mmHg 70%
12:00 +26°C° 0 mm 5 mps 752 mmHg 70%
13:00 +26°C° 0 mm 5 mps 752 mmHg 70%
14:00 +26°C° 0 mm 5 mps 751 mmHg 70%
15:00 +26°C° 0 mm 5 mps 751 mmHg 72%
16:00 +26°C° 0 mm 4 mps 751 mmHg 75%
17:00 +26°C° 0 mm 4 mps 751 mmHg 77%
18:00 +23°C° 0 mm 4 mps 751 mmHg 81%
19:00 +22°C° 0 mm 3 mps 751 mmHg 86%
20:00 +21°C° 0 mm 3 mps 751 mmHg 90%
21:00 +20°C° 0 mm 3 mps 751 mmHg 90%
22:00 +19°C° 0 mm 3 mps 751 mmHg 90%
23:00 +19°C° 0 mm 3 mps 751 mmHg 90%

12 July, Sunday

Time Temperature Precipitation Wind Pressure Humidity
00:00 +18°C° 0 mm 3 mps 751 mmHg 90%
01:00 +18°C° 0 mm 3 mps 751 mmHg 90%
02:00 +18°C° 0 mm 3 mps 750 mmHg 90%
03:00 +18°C° 0 mm 2 mps 750 mmHg 89%
04:00 +18°C° 0 mm 2 mps 750 mmHg 89%
05:00 +18°C° 0 mm 2 mps 750 mmHg 88%
06:00 +20°C° 0 mm 2 mps 750 mmHg 83%
07:00 +21°C° 0 mm 2 mps 750 mmHg 78%
08:00 +24°C° 0 mm 2 mps 750 mmHg 73%
09:00 +25°C° 0 mm 2 mps 750 mmHg 70%
10:00 +26°C° 0 mm 3 mps 749 mmHg 67%
11:00 +27°C° 0 mm 3 mps 749 mmHg 64%
12:00 +27°C° 0 mm 3 mps 749 mmHg 64%
13:00 +27°C° 0 mm 3 mps 749 mmHg 63%
14:00 +28°C° 0 mm 3 mps 748 mmHg 63%
15:00 +27°C° 0 mm 3 mps 748 mmHg 65%
16:00 +27°C° 0 mm 2 mps 748 mmHg 67%
17:00 +27°C° 0 mm 2 mps 747 mmHg 70%
18:00 +25°C° 0 mm 2 mps 747 mmHg 73%
19:00 +23°C° 0 mm 1 mps 747 mmHg 76%
20:00 +22°C° 0 mm 1 mps 747 mmHg 80%
21:00 +21°C° 0 mm 1 mps 747 mmHg 80%
22:00 +20°C° 0 mm 1 mps 747 mmHg 80%
23:00 +19°C° 0 mm 1 mps 747 mmHg 81%

13 July, Monday

Time Temperature Precipitation Wind Pressure Humidity
00:00 +19°C° 0 mm 1 mps 746 mmHg 82%
01:00 +18°C° 0 mm 1 mps 746 mmHg 83%
02:00 +18°C° 0 mm 1 mps 746 mmHg 83%
03:00 +18°C° 0 mm 1 mps 745 mmHg 83%
04:00 +19°C° 0 mm 1 mps 745 mmHg 83%
05:00 +19°C° 0 mm 1 mps 745 mmHg 82%
06:00 +21°C° 0 mm 1 mps 745 mmHg 79%
07:00 +22°C° 0 mm 1 mps 745 mmHg 75%
08:00 +24°C° 0 mm 1 mps 745 mmHg 71%
09:00 +25°C° 0 mm 2 mps 745 mmHg 68%
10:00 +26°C° 0 mm 2 mps 744 mmHg 66%
11:00 +27°C° 0 mm 2 mps 744 mmHg 63%
12:00 +27°C° 0 mm 3 mps 744 mmHg 64%
13:00 +28°C° 0 mm 3 mps 743 mmHg 66%
14:00 +28°C° 0 mm 3 mps 743 mmHg 67%
15:00 +26°C° 3.8 mm 3 mps 743 mmHg 75%
16:00 +25°C° 3.8 mm 2 mps 742 mmHg 83%
17:00 +23°C° 3.8 mm 2 mps 742 mmHg 91%
18:00 +22°C° 1.9 mm 3 mps 742 mmHg 92%
19:00 +21°C° 1.9 mm 3 mps 742 mmHg 92%
20:00 +21°C° 1.9 mm 4 mps 742 mmHg 92%
21:00 +20°C° 0.1 mm 4 mps 741 mmHg 93%
22:00 +20°C° 0.1 mm 3 mps 741 mmHg 94%
23:00 +19°C° 0.1 mm 3 mps 740 mmHg 94%

14 July, Tuesday

Time Temperature Precipitation Wind Pressure Humidity
00:00 +19°C° 0.6 mm 3 mps 740 mmHg 95%
01:00 +19°C° 0.6 mm 3 mps 740 mmHg 96%
02:00 +19°C° 0.6 mm 3 mps 740 mmHg 96%
03:00 +19°C° 0.7 mm 3 mps 739 mmHg 96%
04:00 +20°C° 0.7 mm 3 mps 739 mmHg 97%
05:00 +20°C° 0.7 mm 3 mps 739 mmHg 97%
06:00 +20°C° 0 mm 4 mps 739 mmHg 96%
07:00 +21°C° 0 mm 4 mps 739 mmHg 95%
08:00 +21°C° 0 mm 5 mps 739 mmHg 94%
09:00 +21°C° 0.2 mm 4 mps 739 mmHg 94%
10:00 +21°C° 0.2 mm 4 mps 738 mmHg 94%
11:00 +20°C° 0.2 mm 3 mps 738 mmHg 93%
12:00 +22°C° 0.5 mm 4 mps 738 mmHg 90%
13:00 +23°C° 0.5 mm 4 mps 738 mmHg 86%
14:00 +25°C° 0.5 mm 4 mps 738 mmHg 83%
15:00 +25°C° 0.6 mm 4 mps 738 mmHg 84%
16:00 +24°C° 0.6 mm 3 mps 737 mmHg 85%
17:00 +24°C° 0.6 mm 3 mps 737 mmHg 87%
18:00 +22°C° 0.3 mm 3 mps 737 mmHg 89%
19:00 +21°C° 0.3 mm 3 mps 738 mmHg 92%
20:00 +20°C° 0.3 mm 4 mps 738 mmHg 94%
21:00 +19°C° 0 mm 3 mps 738 mmHg 95%
22:00 +18°C° 0 mm 3 mps 738 mmHg 95%
23:00 +16°C° 0 mm 3 mps 738 mmHg 96%
Show more